Regional Weather Roundup
Issued by NWS Midland/Odessa, TX

Skip options and go directly to product.
Home | Oldest Version | Previous Version | Current Version | All | Graphics & Text | Save Text | Print | Product List | Glossary On

Skip product version selection by date and time.   
212
ASUS44 KMAF 221410
RWRMAF
MIDLAND AREA WEATHER ROUNDUP
NATIONAL WEATHER SERVICE MIDLAND TX
900 AM CDT WED OCT 22 2014

...IN SOUTHWEST TEXAS AND SOUTHEAST NEW MEXICO...

CITY           SKY/WX    TMP DP  RH WIND       PRES   REMARKS
ALPINE         MOSUNNY   60  58  90 CALM      30.21R
ANDREWS        FAIR      61  59  91 SE7       30.13R
ARTESIA        NOT AVBL
BIG SPRING     CLOUDY    61  58  88 SE10      30.16R
CARLSBAD       CLOUDY    62  59  90 CALM      30.10R FOG
DRYDEN           N/A     66  65  96 E7        30.09R
FORT STOCKTON  CLOUDY    63  60  90 SE8       30.11R
GUAD PASS      MOCLDY    55  54  96 S7        30.19R
HOBBS          CLOUDY    61  61 100 SE9       30.13R
MARFA          CLOUDY    57  57 100 CALM      30.19R
MIDLAND AIRPK  PTSUNNY   64  59  83 SE8       30.13R
MIDLAND INTL   CLOUDY    64  59  83 SE10      30.12R
ODESSA         CLOUDY    63  58  83 S8        30.13R
PECOS          CLOUDY    62  60  94 CALM      30.10R FOG
PRESIDIO       CLOUDY    65  62  89 MISG      30.08R
SEMINOLE       PTSUNNY   62  60  94 CALM      30.13R
SNYDER         CLOUDY    61  54  77 SE7       30.14R
WINK           CLOUDY    65  61  87 SE10      30.08R
$$
...OTHER STATIONS IN TEXAS...

CITY           SKY/WX    TMP DP  RH WIND       PRES   REMARKS
ABILENE        CLOUDY    65  51  60 SE6       30.13R
AMARILLO       RAIN      58  58 100 S10       30.13R FOG
AUSTIN         PTSUNNY   65  60  84 CALM      30.12R
BROWNSVILLE    LGT RAIN  73  72  96 S8        30.00R
CORPUS CHRISTI MOSUNNY   71  67  87 NE8       30.04R
DALLAS FTW     MOSUNNY   65  62  90 SE5       30.14R FOG
DEL RIO        CLOUDY    69  57  65 E7        30.07R
EL PASO        MOCLDY    61  56  83 NE3       30.11R
HOUSTON INT    MOSUNNY   67  62  84 NE8       30.10R
LUBBOCK        CLOUDY    62  59  90 S9        30.13R
SAN ANGELO     CLOUDY    62  56  80 CALM      30.13R
SAN ANTONIO    PTSUNNY   67  55  65 CALM      30.11R
WACO           SUNNY     64  60  87 NE3       30.13R FOG
WICHITA FALLS  NOT AVBL
$$
...OTHER LOCATIONS IN NEW MEXICO...

CITY           SKY/WX    TMP DP  RH WIND       PRES   REMARKS
ALAMAGORDO     NOT AVBL
ALBUQUERQUE    PTCLDY    53  47  79 VRB3      30.18R
CANNON AFB     CLOUDY    58  56  94 SW5       30.14R FOG
CLOVIS         CLOUDY    57  55  94 S6        30.16R
HOLLOMAN AFB   PTCLDY    49  48  96 N5        30.13R
ROSWELL        FOG       60  59  96 CALM      30.11R VSB 1/2
RUIDOSO        CLEAR     45  43  93 CALM      30.23R
SANTA FE       FOG       47  46  97 CALM      30.21R VSB<1/4
TRUTH OR CONSE CLEAR     51  48  89 W6        30.14R
TUCUMCARI      CLOUDY    59  54  83 SW8       30.09R
$$

USA.gov is the U.S. government's official web portal to all federal, state and local government web resources and services.